KA1CNF Weather Reports


Display with metric or nautical units.
time (UTC)temp
F
wind
direction
speed
MPH
gust
MPH
rain 1hr
in
rain 24hr
in
rain mn
in
humidity
%
barometer
mb
20260504050016 53 225 4.0 8.0 0.00 0.00 0.00 58 1007.2
20260504043015 54 247 3.0 8.0 0.00 0.00 0.00 57 1007.3
20260504040016 54 225 4.0 12.0 0.00 0.00 0.00 57 1007.3
20260504033015 54 225 4.0 11.0 0.00 0.00 0.00 58 1007.2
20260504030015 54 225 3.0 8.0 0.00 0.00 0.00 59 1007.4
20260504023035 53 225 4.0 12.0 0.00 0.00 0.00 60 1007.7
20260504020015 52 247 2.0 9.0 0.00 0.00 0.00 65 1007.7
20260504013017 51 315 2.0 8.0 0.00 0.00 0.00 70 1007.9
20260504010017 51 315 2.0 8.0 0.00 0.00 0.00 73 1008.0
20260504003018 52 270 3.0 9.0 0.00 0.00 0.00 73 1008.4
20260504000017 53 292 4.0 20.0 0.00 0.00 0.00 67 1008.1
20260503233016 55 247 6.0 19.0 0.00 0.00 0.00 60 1008.0
20260503230037 56 270 5.0 15.0 0.00 0.00 0.00 51 1007.4
20260503223016 57 292 3.0 13.0 0.00 0.00 0.00 48 1007.1
20260503220016 58 270 3.0 16.0 0.00 0.00 0.00 49 1007.7
20260503213017 59 292 3.0 10.0 0.00 0.00 0.00 45 1007.4
20260503210017 60 270 4.0 18.0 0.00 0.00 0.00 43 1007.5
20260503203016 60 247 4.0 16.0 0.00 0.00 0.00 41 1007.8
20260503200016 59 225 4.0 13.0 0.00 0.00 0.00 44 1008.3
20260503193016 58 315 5.0 19.0 0.00 0.00 0.00 43 1008.9
20260503190036 57 247 4.0 17.0 0.00 0.00 0.00 43 1009.4
20260503183016 56 337 3.0 11.0 0.00 0.00 0.00 50 1009.7
20260503180016 58 292 4.0 16.0 0.00 0.00 0.00 51 1009.8
20260503173017 58 292 4.0 16.0 0.00 0.00 0.00 48 1010.1
20260503053016 41 292 1.0 4.0 0.00 0.00 0.00 81 1012.7